Friday Harbor, WA

2:00 PM PST on February 19, 2017 (GMT -0800)
Friday Harbor

Weather History for KFHR - October, 2012

Change the Weather History Date:

Thursday, October 4, 2012

  Actual Average Record
Temperature  
Mean Temperature 56 °F -  
Max Temperature 62 °F 59 °F 72 °F (2001)
Min Temperature 46 °F 43 °F 37 °F (2000)
Degree Days  
Heating Degree Days 9    
Growing Degree Days 6 (Base 50)    
Moisture  
Dew Point 38 °F    
Average Humidity 56    
Maximum Humidity 71    
Minimum Humidity 34    
Precipitation  
Precipitation 0.00 in - - ()
Sea Level Pressure  
Sea Level Pressure 30.30 in    
Wind  
Wind Speed 7 mph (NNW)    
Max Wind Speed 13 mph    
Max Gust Speed 23 mph    
Visibility 10 miles    
Events      
Averages and records for this station are not official NWS values.
T = Trace of Precipitation, MM = Missing Value Source: NWS Daily Summary

Daily Weather History Graph

Daily Weather History Graph

Search for Another Location

Airport or City:

Trip Planner

Search our weather history database for the weather conditions in past years. The results will help you decide how hot, cold, wet, or windy it might be!

Date:

Astronomy

Oct. 04, 2012 Rise Set
Actual Time 7:16 AM PDT 6:43 PM PDT
Civil Twilight 6:45 AM PDT 7:14 PM PDT
Nautical Twilight 6:09 AM PDT 7:51 PM PDT
Astronomical Twilight 5:32 AM PDT 8:27 PM PDT
Moon 9:00 PM PDT (10/4) 12:00 PM PDT (10/4)
Length of Visible Light 12h 29m
Length of Day
11h 26m
Waning Gibbous, 81% of the Moon is Illuminated
Oct 4
Waning Gibbous
Oct 8
Last Quarter
Oct 15
New
Oct 21
First Quarter
Oct 29
Full

Hourly Weather History & Observations

Time (PDT) Temp. Dew Point Humidity Pressure Visibility Wind Dir Wind Speed Gust Speed Precip Events Conditions
12:53 AM 53.1 °F 34.0 °F 48% 30.31 in 10.0 mi North 8.1 mph - N/A   Clear
1:53 AM 54.0 °F 37.9 °F 55% 30.31 in 10.0 mi NNW 8.1 mph - N/A   Clear
2:53 AM 52.0 °F 39.0 °F 61% 30.31 in 10.0 mi Variable 4.6 mph - N/A   Clear
3:53 AM 52.0 °F 42.1 °F 69% 30.31 in 10.0 mi Variable 4.6 mph - N/A   Clear
4:53 AM 52.0 °F 41.0 °F 66% 30.30 in 10.0 mi NNW 8.1 mph - N/A   Clear
5:53 AM 52.0 °F 42.1 °F 69% 30.31 in 10.0 mi North 9.2 mph 16.1 mph N/A   Clear
6:53 AM 51.1 °F 42.1 °F 71% 30.31 in 10.0 mi NNW 5.8 mph - N/A   Clear
7:53 AM 51.1 °F 42.1 °F 71% 30.32 in 10.0 mi North 8.1 mph - N/A   Clear
8:53 AM 53.1 °F 43.0 °F 69% 30.32 in 10.0 mi NNW 8.1 mph - N/A   Clear
9:53 AM 55.0 °F 43.0 °F 64% 30.33 in 10.0 mi North 8.1 mph - N/A   Clear
10:53 AM 55.9 °F 43.0 °F 62% 30.34 in 10.0 mi North 12.7 mph 18.4 mph N/A   Clear
11:53 AM 57.9 °F 41.0 °F 53% 30.33 in 10.0 mi North 10.4 mph 23.0 mph N/A   Clear
12:53 PM 60.1 °F 39.9 °F 47% 30.33 in 10.0 mi Variable 4.6 mph - N/A   Clear
1:53 PM 60.1 °F 35.1 °F 39% 30.32 in 10.0 mi North 11.5 mph - N/A   Clear
2:53 PM 60.1 °F 35.1 °F 39% 30.31 in 10.0 mi North 11.5 mph 16.1 mph N/A   Clear
3:53 PM 61.0 °F 36.0 °F 39% 30.30 in 10.0 mi North 10.4 mph - N/A   Clear
4:53 PM 62.1 °F 33.1 °F 34% 30.29 in 10.0 mi North 6.9 mph - N/A   Clear
5:53 PM 59.0 °F 36.0 °F 42% 30.28 in 10.0 mi NW 3.5 mph - N/A   Clear
6:53 PM 53.1 °F 36.0 °F 52% 30.28 in 10.0 mi West 3.5 mph - N/A   Clear
7:53 PM 51.1 °F 35.1 °F 54% 30.27 in 10.0 mi WNW 3.5 mph - N/A   Clear
8:53 PM 53.1 °F 35.1 °F 50% 30.27 in 10.0 mi NW 3.5 mph - N/A   Clear
9:53 PM 50.0 °F 35.1 °F 57% 30.28 in 10.0 mi Variable 3.5 mph - N/A   Clear
10:53 PM 51.1 °F 36.0 °F 56% 30.29 in 10.0 mi Calm Calm - N/A   Clear
11:53 PM 46.0 °F 36.0 °F 68% 30.29 in 10.0 mi Calm Calm - N/A   Clear